Time,TemperatureF,DewpointF,PressureIn,WindDirection,WindDirectionDegrees,WindSpeedMPH,WindSpeedGustMPH,Humidity,HourlyPrecipIn,Conditions,Clouds,dailyrainin,SoftwareType,DateUTC
2013-03-10 00:00:00,51.3,50.8,29.45,South,180,0.0,4.0,98,0.00,,SKC,0.00,VWS V14.01,2013-03-10 06:00:00,
2013-03-10 00:10:00,51.3,50.8,29.45,South,180,0.0,2.0,98,0.00,,SKC,0.00,VWS V14.01,2013-03-10 06:10:00,
2013-03-10 00:20:00,51.4,50.9,29.45,South,180,0.0,0.0,98,0.00,,SKC,0.00,VWS V14.01,2013-03-10 06:20:00,
2013-03-10 00:30:00,51.4,50.9,29.45,South,180,0.0,0.0,98,0.00,,SKC,0.00,VWS V14.01,2013-03-10 06:30:00,
2013-03-10 00:40:00,51.4,50.9,29.46,South,180,0.0,0.0,98,0.00,,SKC,0.00,VWS V14.01,2013-03-10 06:40:00,
2013-03-10 00:50:00,51.4,50.9,29.45,South,180,0.0,0.0,98,0.00,,SKC,0.00,VWS V14.01,2013-03-10 06:50:00,
2013-03-10 03:00:00,51.2,50.7,29.44,South,180,0.0,0.0,98,0.00,,SKC,0.00,VWS V14.01,2013-03-10 08:00:00,
2013-03-10 03:10:00,51.1,50.6,29.44,South,180,0.0,1.0,98,0.00,,SKC,0.00,VWS V14.01,2013-03-10 08:10:00,
2013-03-10 03:20:00,50.9,50.4,29.44,South,180,0.0,2.0,98,0.00,,SKC,0.00,VWS V14.01,2013-03-10 08:20:00,
2013-03-10 03:30:00,50.7,50.2,29.44,South,180,0.0,4.0,98,0.00,,SKC,0.00,VWS V14.01,2013-03-10 08:30:00,
2013-03-10 03:40:00,50.6,50.1,29.44,South,180,0.0,5.0,98,0.00,,SKC,0.00,VWS V14.01,2013-03-10 08:40:00,
2013-03-10 03:50:00,50.6,50.1,29.45,South,180,0.0,4.0,98,0.00,,SKC,0.00,VWS V14.01,2013-03-10 08:50:00,
2013-03-10 04:00:00,50.7,50.2,29.44,South,180,0.0,1.0,98,0.00,,SKC,0.00,VWS V14.01,2013-03-10 09:00:00,
2013-03-10 04:10:00,50.6,50.1,29.43,South,180,0.0,0.0,98,0.00,,SKC,0.00,VWS V14.01,2013-03-10 09:10:00,
2013-03-10 04:20:00,50.6,50.1,29.44,South,180,0.0,0.0,98,0.00,,SKC,0.00,VWS V14.01,2013-03-10 09:20:00,
2013-03-10 04:30:00,50.2,49.7,29.42,WSW,248,1.0,9.0,98,0.00,,SKC,0.00,VWS V14.01,2013-03-10 09:30:00,
2013-03-10 04:40:00,47.4,46.0,29.42,NNW,338,4.0,13.0,95,0.00,,SKC,0.00,VWS V14.01,2013-03-10 09:40:00,
2013-03-10 04:50:00,45.2,44.1,29.44,North,0,3.0,11.0,96,0.00,,SKC,0.00,VWS V14.01,2013-03-10 09:50:00,
2013-03-10 05:00:00,44.0,42.9,29.45,North,0,3.0,11.0,96,0.00,,SKC,0.00,VWS V14.01,2013-03-10 10:00:00,
2013-03-10 05:10:00,42.9,41.8,29.46,NNW,338,5.0,15.0,96,0.00,,SKC,0.00,VWS V14.01,2013-03-10 10:10:00,
2013-03-10 05:20:00,42.3,41.2,29.49,NNW,338,5.0,17.0,96,0.01,,SKC,0.01,VWS V14.01,2013-03-10 10:20:00,
2013-03-10 05:30:00,41.5,40.5,29.50,North,0,4.0,13.0,96,0.01,,SKC,0.01,VWS V14.01,2013-03-10 10:30:00,
2013-03-10 05:40:00,41.0,40.2,29.49,North,0,4.0,11.0,97,0.01,,SKC,0.01,VWS V14.01,2013-03-10 10:40:00,
2013-03-10 05:50:00,40.4,39.6,29.49,North,0,4.0,12.0,97,0.01,,SKC,0.01,VWS V14.01,2013-03-10 10:50:00,
2013-03-10 06:00:00,39.5,38.5,29.50,North,0,4.0,13.0,96,0.01,,SKC,0.01,VWS V14.01,2013-03-10 11:00:00,
2013-03-10 06:10:00,38.8,37.8,29.51,NNW,338,5.0,15.0,96,0.01,,SKC,0.01,VWS V14.01,2013-03-10 11:10:00,
2013-03-10 06:20:00,38.3,37.5,29.50,NNE,22,5.0,15.0,97,0.01,,SKC,0.01,VWS V14.01,2013-03-10 11:20:00,
2013-03-10 06:30:00,37.9,37.1,29.49,NNE,22,6.0,17.0,97,0.00,,SKC,0.01,VWS V14.01,2013-03-10 11:30:00,
2013-03-10 06:40:00,37.6,36.8,29.49,North,0,5.0,13.0,97,0.00,,SKC,0.01,VWS V14.01,2013-03-10 11:40:00,
2013-03-10 06:50:00,37.2,36.4,29.50,North,0,5.0,14.0,97,0.00,,SKC,0.01,VWS V14.01,2013-03-10 11:50:00,
2013-03-10 07:00:00,36.9,36.1,29.50,NNE,22,4.0,16.0,97,0.00,,SKC,0.01,VWS V14.01,2013-03-10 12:00:00,
2013-03-10 07:10:00,36.6,35.8,29.52,North,0,6.0,17.0,97,0.00,,SKC,0.01,VWS V14.01,2013-03-10 12:10:00,
2013-03-10 07:20:00,36.5,35.7,29.53,North,0,5.0,12.0,97,0.00,,SKC,0.01,VWS V14.01,2013-03-10 12:20:00,
2013-03-10 07:30:00,36.4,35.6,29.53,North,0,4.0,12.0,97,0.00,,SKC,0.01,VWS V14.01,2013-03-10 12:30:00,
2013-03-10 07:40:00,36.2,35.4,29.53,NNW,338,5.0,18.0,97,0.00,,SKC,0.01,VWS V14.01,2013-03-10 12:40:00,
2013-03-10 07:50:00,35.9,35.1,29.53,North,0,4.0,13.0,97,0.00,,SKC,0.01,VWS V14.01,2013-03-10 12:50:00,
2013-03-10 08:00:00,35.8,35.0,29.54,North,0,5.0,16.0,97,0.00,,SKC,0.01,VWS V14.01,2013-03-10 13:00:00,
2013-03-10 08:10:00,35.6,34.8,29.55,North,0,5.0,15.0,97,0.00,,SKC,0.01,VWS V14.01,2013-03-10 13:10:00,
2013-03-10 08:20:00,35.5,34.7,29.56,North,0,4.0,10.0,97,0.00,,SKC,0.01,VWS V14.01,2013-03-10 13:20:00,
2013-03-10 08:30:00,35.3,34.5,29.57,NNE,22,5.0,17.0,97,0.00,,SKC,0.01,VWS V14.01,2013-03-10 13:30:00,
2013-03-10 08:40:00,35.3,34.5,29.55,NNE,22,4.0,12.0,97,0.00,,SKC,0.01,VWS V14.01,2013-03-10 13:40:00,
2013-03-10 08:50:00,35.1,34.3,29.54,NNE,22,4.0,17.0,97,0.00,,SKC,0.01,VWS V14.01,2013-03-10 13:50:00,
2013-03-10 09:00:00,35.1,34.3,29.55,North,0,5.0,15.0,97,0.00,,SKC,0.01,VWS V14.01,2013-03-10 14:00:00,
2013-03-10 09:10:00,35.1,34.3,29.57,North,0,4.0,14.0,97,0.00,,SKC,0.01,VWS V14.01,2013-03-10 14:10:00,
2013-03-10 09:20:00,35.1,34.3,29.58,North,0,4.0,15.0,97,0.00,,SKC,0.01,VWS V14.01,2013-03-10 14:20:00,
2013-03-10 09:30:00,35.0,34.2,29.58,NNW,338,5.0,13.0,97,0.00,,SKC,0.01,VWS V14.01,2013-03-10 14:30:00,
2013-03-10 09:40:00,34.9,34.1,29.59,NNW,338,4.0,16.0,97,0.00,,SKC,0.01,VWS V14.01,2013-03-10 14:40:00,
2013-03-10 09:50:00,34.8,34.0,29.59,North,0,4.0,13.0,97,0.00,,SKC,0.01,VWS V14.01,2013-03-10 14:50:00,
2013-03-10 10:00:00,34.5,33.7,29.59,NNW,338,4.0,13.0,97,0.00,,SKC,0.01,VWS V14.01,2013-03-10 15:00:00,
2013-03-10 10:10:00,34.4,33.6,29.59,North,0,4.0,13.0,97,0.00,,SKC,0.01,VWS V14.01,2013-03-10 15:10:00,
2013-03-10 10:20:00,34.4,33.6,29.57,North,0,5.0,18.0,97,0.00,,SKC,0.01,VWS V14.01,2013-03-10 15:20:00,
2013-03-10 10:30:00,34.4,33.6,29.57,North,0,6.0,20.0,97,0.00,,SKC,0.01,VWS V14.01,2013-03-10 15:30:00,
2013-03-10 10:40:00,34.4,33.6,29.57,North,0,6.0,17.0,97,0.00,,SKC,0.01,VWS V14.01,2013-03-10 15:40:00,
2013-03-10 10:50:00,34.4,33.6,29.58,North,0,5.0,15.0,97,0.00,,SKC,0.01,VWS V14.01,2013-03-10 15:50:00,
2013-03-10 11:00:00,34.1,33.1,29.60,North,0,6.0,17.0,96,0.00,,SKC,0.01,VWS V14.01,2013-03-10 16:00:00,
2013-03-10 11:10:00,34.0,33.0,29.60,North,0,5.0,17.0,96,0.00,,SKC,0.01,VWS V14.01,2013-03-10 16:10:00,
2013-03-10 11:20:00,33.9,33.1,29.60,NW,315,5.0,15.0,97,0.00,,SKC,0.01,VWS V14.01,2013-03-10 16:20:00,
2013-03-10 11:30:00,33.8,33.0,29.61,NNW,338,4.0,13.0,97,0.00,,SKC,0.01,VWS V14.01,2013-03-10 16:30:00,
2013-03-10 11:40:00,33.7,32.7,29.61,NNW,338,6.0,17.0,96,0.00,,SKC,0.01,VWS V14.01,2013-03-10 16:40:00,
2013-03-10 11:50:00,33.6,32.6,29.62,NNW,338,6.0,19.0,96,0.00,,SKC,0.01,VWS V14.01,2013-03-10 16:50:00,
2013-03-10 12:00:00,33.2,32.2,29.62,NNW,338,6.0,16.0,96,0.00,,SKC,0.01,VWS V14.01,2013-03-10 17:00:00,
2013-03-10 12:10:00,33.1,32.1,29.62,NNW,338,5.0,20.0,96,0.00,,SKC,0.01,VWS V14.01,2013-03-10 17:10:00,
2013-03-10 12:20:00,33.0,32.0,29.62,NNW,338,6.0,18.0,96,0.00,,SKC,0.01,VWS V14.01,2013-03-10 17:20:00,
2013-03-10 12:30:00,32.9,31.9,29.63,North,0,6.0,19.0,96,0.00,,SKC,0.01,VWS V14.01,2013-03-10 17:30:00,
2013-03-10 12:40:00,33.0,32.0,29.64,NNW,338,5.0,15.0,96,0.00,,SKC,0.01,VWS V14.01,2013-03-10 17:40:00,
2013-03-10 12:50:00,32.8,31.8,29.63,NNW,338,6.0,18.0,96,0.00,,SKC,0.01,VWS V14.01,2013-03-10 17:50:00,
2013-03-10 13:00:00,32.8,31.8,29.63,NW,315,5.0,13.0,96,0.00,,SKC,0.01,VWS V14.01,2013-03-10 18:00:00,
2013-03-10 13:10:00,32.5,31.5,29.64,NW,315,8.0,21.0,96,0.00,,SKC,0.01,VWS V14.01,2013-03-10 18:10:00,
2013-03-10 13:20:00,32.4,31.1,29.63,NNW,338,5.0,17.0,95,0.00,,SKC,0.01,VWS V14.01,2013-03-10 18:20:00,
2013-03-10 13:30:00,32.5,31.2,29.63,NNW,338,6.0,17.0,95,0.00,,SKC,0.01,VWS V14.01,2013-03-10 18:30:00,
2013-03-10 13:40:00,32.5,31.5,29.63,NW,315,7.0,19.0,96,0.00,,SKC,0.01,VWS V14.01,2013-03-10 18:40:00,
2013-03-10 13:50:00,32.2,30.9,29.64,NW,315,7.0,17.0,95,0.00,,SKC,0.01,VWS V14.01,2013-03-10 18:50:00,
2013-03-10 14:00:00,32.0,30.7,29.63,NNW,338,6.0,21.0,95,0.00,,SKC,0.01,VWS V14.01,2013-03-10 19:00:00,
2013-03-10 14:10:00,31.9,30.6,29.63,NW,315,7.0,21.0,95,0.00,,SKC,0.01,VWS V14.01,2013-03-10 19:10:00,
2013-03-10 14:20:00,31.6,30.3,29.63,NW,315,8.0,20.0,95,0.00,,SKC,0.01,VWS V14.01,2013-03-10 19:20:00,
2013-03-10 14:30:00,31.6,30.3,29.64,NW,315,7.0,17.0,95,0.00,,SKC,0.01,VWS V14.01,2013-03-10 19:30:00,
2013-03-10 14:40:00,31.1,29.8,29.64,NW,315,8.0,20.0,95,0.00,,SKC,0.01,VWS V14.01,2013-03-10 19:40:00,
2013-03-10 14:50:00,30.7,29.4,29.64,NW,315,9.0,24.0,95,0.00,,SKC,0.01,VWS V14.01,2013-03-10 19:50:00,
2013-03-10 15:00:00,30.7,29.4,29.64,NW,315,7.0,19.0,95,0.00,,SKC,0.01,VWS V14.01,2013-03-10 20:00:00,
2013-03-10 15:10:00,30.6,29.1,29.65,NW,315,11.0,22.0,94,0.00,,SKC,0.01,VWS V14.01,2013-03-10 20:10:00,
2013-03-10 15:20:00,30.6,29.1,29.65,NW,315,7.0,19.0,94,0.00,,SKC,0.01,VWS V14.01,2013-03-10 20:20:00,
2013-03-10 15:30:00,30.6,29.1,29.66,NW,315,6.0,17.0,94,0.00,,SKC,0.01,VWS V14.01,2013-03-10 20:30:00,
2013-03-10 15:40:00,29.8,28.0,29.66,NW,315,9.0,20.0,93,0.00,,SKC,0.01,VWS V14.01,2013-03-10 20:40:00,
2013-03-10 15:50:00,29.4,27.9,29.67,NW,315,8.0,20.0,94,0.00,,SKC,0.01,VWS V14.01,2013-03-10 20:50:00,
2013-03-10 16:00:00,29.3,27.8,29.68,NW,315,7.0,18.0,94,0.00,,SKC,0.01,VWS V14.01,2013-03-10 21:00:00,
2013-03-10 16:10:00,29.2,27.7,29.69,NW,315,7.0,20.0,94,0.00,,SKC,0.01,VWS V14.01,2013-03-10 21:10:00,
2013-03-10 16:20:00,29.2,27.7,29.69,NW,315,7.0,18.0,94,0.00,,SKC,0.01,VWS V14.01,2013-03-10 21:20:00,
2013-03-10 16:30:00,29.1,27.6,29.70,NW,315,8.0,24.0,94,0.00,,SKC,0.01,VWS V14.01,2013-03-10 21:30:00,
2013-03-10 16:40:00,29.0,27.5,29.70,NW,315,8.0,21.0,94,0.00,,SKC,0.01,VWS V14.01,2013-03-10 21:40:00,
2013-03-10 16:50:00,29.1,27.3,29.71,NW,315,8.0,22.0,93,0.00,,SKC,0.01,VWS V14.01,2013-03-10 21:50:00,
2013-03-10 17:00:00,29.2,27.4,29.71,NW,315,8.0,17.0,93,0.00,,SKC,0.01,VWS V14.01,2013-03-10 22:00:00,
2013-03-10 17:10:00,29.2,27.4,29.71,NW,315,8.0,19.0,93,0.00,,SKC,0.01,VWS V14.01,2013-03-10 22:10:00,
2013-03-10 17:20:00,29.2,27.4,29.71,NW,315,8.0,19.0,93,0.00,,SKC,0.01,VWS V14.01,2013-03-10 22:20:00,
2013-03-10 17:30:00,29.2,27.4,29.72,NW,315,7.0,18.0,93,0.00,,SKC,0.01,VWS V14.01,2013-03-10 22:30:00,
2013-03-10 17:40:00,29.2,27.2,29.72,NW,315,8.0,19.0,92,0.00,,SKC,0.01,VWS V14.01,2013-03-10 22:40:00,
2013-03-10 17:50:00,29.1,27.1,29.73,NW,315,8.0,22.0,92,0.00,,SKC,0.01,VWS V14.01,2013-03-10 22:50:00,
2013-03-10 18:00:00,28.7,26.4,29.73,NW,315,10.0,24.0,91,0.00,,SKC,0.01,VWS V14.01,2013-03-10 23:00:00,
2013-03-10 18:10:00,28.8,26.5,29.74,NW,315,6.0,21.0,91,0.00,,SKC,0.01,VWS V14.01,2013-03-10 23:10:00,
2013-03-10 18:20:00,28.8,26.5,29.75,NW,315,6.0,22.0,91,0.00,,SKC,0.01,VWS V14.01,2013-03-10 23:20:00,
2013-03-10 18:30:00,28.5,26.2,29.75,NW,315,8.0,22.0,91,0.00,,SKC,0.01,VWS V14.01,2013-03-10 23:30:00,
2013-03-10 18:40:00,28.3,25.8,29.75,NW,315,8.0,20.0,90,0.00,,SKC,0.01,VWS V14.01,2013-03-10 23:40:00,
2013-03-10 18:50:00,28.2,25.6,29.75,NW,315,6.0,20.0,90,0.00,,SKC,0.01,VWS V14.01,2013-03-10 23:50:00,
2013-03-10 19:00:00,27.9,25.1,29.75,NW,315,7.0,18.0,89,0.00,,SKC,0.01,VWS V14.01,2013-03-11 00:00:00,
2013-03-10 19:10:00,27.7,24.9,29.76,NW,315,8.0,23.0,89,0.00,,SKC,0.01,VWS V14.01,2013-03-11 00:10:00,
2013-03-10 19:20:00,27.5,24.4,29.76,NW,315,7.0,20.0,88,0.00,,SKC,0.01,VWS V14.01,2013-03-11 00:20:00,
2013-03-10 19:30:00,27.5,24.4,29.76,NW,315,7.0,18.0,88,0.00,,SKC,0.01,VWS V14.01,2013-03-11 00:30:00,
2013-03-10 19:40:00,27.4,24.0,29.77,NW,315,7.0,22.0,87,0.00,,SKC,0.01,VWS V14.01,2013-03-11 00:40:00,
2013-03-10 19:50:00,27.2,23.6,29.77,NW,315,8.0,21.0,86,0.00,,SKC,0.01,VWS V14.01,2013-03-11 00:50:00,
2013-03-10 20:00:00,26.9,23.3,29.78,NW,315,9.0,22.0,86,0.00,,SKC,0.01,VWS V14.01,2013-03-11 01:00:00,
2013-03-10 20:10:00,26.6,23.0,29.79,NW,315,9.0,17.0,86,0.00,,SKC,0.01,VWS V14.01,2013-03-11 01:10:00,
2013-03-10 20:20:00,26.5,23.2,29.78,NW,315,7.0,21.0,87,0.00,,SKC,0.01,VWS V14.01,2013-03-11 01:20:00,
2013-03-10 20:30:00,26.3,23.0,29.79,NW,315,8.0,21.0,87,0.00,,SKC,0.01,VWS V14.01,2013-03-11 01:30:00,
2013-03-10 20:40:00,26.2,22.9,29.80,NW,315,6.0,16.0,87,0.00,,SKC,0.01,VWS V14.01,2013-03-11 01:40:00,
2013-03-10 20:50:00,25.7,22.4,29.80,NW,315,8.0,18.0,87,0.00,,SKC,0.01,VWS V14.01,2013-03-11 01:50:00,
2013-03-10 21:00:00,25.4,22.4,29.80,NW,315,7.0,22.0,88,0.00,,SKC,0.01,VWS V14.01,2013-03-11 02:00:00,
2013-03-10 21:10:00,25.4,22.4,29.81,NW,315,4.0,11.0,88,0.00,,SKC,0.01,VWS V14.01,2013-03-11 02:10:00,
2013-03-10 21:20:00,25.3,22.2,29.81,NW,315,6.0,18.0,88,0.00,,SKC,0.01,VWS V14.01,2013-03-11 02:20:00,
2013-03-10 21:30:00,25.2,22.1,29.82,NW,315,6.0,15.0,88,0.00,,SKC,0.01,VWS V14.01,2013-03-11 02:30:00,
2013-03-10 21:40:00,25.2,21.9,29.81,NW,315,6.0,16.0,87,0.00,,SKC,0.01,VWS V14.01,2013-03-11 02:40:00,
2013-03-10 21:50:00,25.2,21.6,29.81,NW,315,7.0,20.0,86,0.00,,SKC,0.01,VWS V14.01,2013-03-11 02:50:00,
2013-03-10 22:00:00,25.2,21.6,29.82,NW,315,7.0,16.0,86,0.00,,SKC,0.01,VWS V14.01,2013-03-11 03:00:00,
2013-03-10 22:10:00,25.1,21.5,29.82,NW,315,8.0,17.0,86,0.00,,SKC,0.01,VWS V14.01,2013-03-11 03:10:00,
2013-03-10 22:20:00,24.9,21.3,29.82,NW,315,8.0,16.0,86,0.00,,SKC,0.01,VWS V14.01,2013-03-11 03:20:00,
2013-03-10 22:30:00,24.8,21.2,29.82,NW,315,8.0,18.0,86,0.00,,SKC,0.01,VWS V14.01,2013-03-11 03:30:00,
2013-03-10 22:40:00,24.8,21.2,29.81,NW,315,6.0,19.0,86,0.00,,SKC,0.01,VWS V14.01,2013-03-11 03:40:00,
2013-03-10 22:50:00,24.7,21.1,29.81,NW,315,7.0,19.0,86,0.00,,SKC,0.01,VWS V14.01,2013-03-11 03:50:00,
2013-03-10 23:00:00,24.6,21.0,29.81,NW,315,6.0,18.0,86,0.00,,SKC,0.01,VWS V14.01,2013-03-11 04:00:00,
2013-03-10 23:10:00,24.6,21.0,29.82,NW,315,6.0,16.0,86,0.00,,SKC,0.01,VWS V14.01,2013-03-11 04:10:00,
2013-03-10 23:20:00,24.7,21.1,29.82,NW,315,6.0,17.0,86,0.00,,SKC,0.01,VWS V14.01,2013-03-11 04:20:00,
2013-03-10 23:30:00,24.8,21.5,29.83,NW,315,6.0,15.0,87,0.00,,SKC,0.01,VWS V14.01,2013-03-11 04:30:00,
2013-03-10 23:40:00,24.7,21.1,29.83,NW,315,6.0,23.0,86,0.00,,SKC,0.01,VWS V14.01,2013-03-11 04:40:00,
2013-03-10 23:50:00,24.7,21.1,29.83,NW,315,6.0,17.0,86,0.00,,SKC,0.01,VWS V14.01,2013-03-11 04:50:00,